SL-19 DEB, 23487

Orbit data source: Space-Track

SL-19 DEB, 23487 is space debris in LEO originally from a launch on Mon, 26 Dec 1994 UTC launched from the Tyuratam Missile And Space Complex (TTMTR). Debris objects in space refer to the collection of defunct objects orbiting the Earth. Examples of debris include non-operational satellites, rocket bodies, and fragments generated from explosions, collisions, or faulty payload assembly.

Loading next visibility...
Identifier
23487, 1994-085K
Orbit
LEO
Last TLE update
21 hours ago
Origin
Manufacturer
Unknown
Mission
Spacecraft
Bus & Motor
Unknown
Mass
Unknown
Launch date (UTC)
1994-12-26 (30 years ago)
Launch vehicle
Unknown
Launch site
Tyuratam Missile And Space Complex (TTMTR)
Object type
Payload
Rocket body
Debris
Shape & HBR
Unknown
Radar Cross Section
Small (<0.1 m²)

Expand to show TLE details & history

TLE from 21 hours ago
0 SL-19 DEB
1 23487U 94085K   25128.37010611  .00000027  00000-0  18966-2 0  9998
2 23487  64.9377 214.8751 0179955 261.3809 232.1090 11.30406192253199
Epoch: 2025-05-08T08:52Z
Definitive object data (Epoch: 2025-05-08T08:52:57.167Z)
Latitude
42.4992°
Longitude
9.94731°
Altitude
2,107.86 km
Speed
6.82 km/s
True Right ascension
00h 38m 30s
True Declination
42° 21' 19"
Sunlit
Object was in daylight at TLE epoch
Visualization TLE readout
Latitude
61.44038°
Longitude
-25.01215°
Altitude
2,156.221 km
Speed
6.784 km/s
Apparent Right ascension
00h 23m 18s
Apparent Declination
23° 15' 16"
Sunlit
Object is in daylight
Visualization observer readout
Local Sidereal Time
14:05:38
Azimuth
25.425° NE
Elevation
-22.474°
Doppler factor
1
Orbital elements
Apogee altitude
2,158.015 km
Perigee altitude
1,856.221 km
Semi-major axis
8,385.255 km
Eccentricity
0.0179955
Inclination
64.9377°
RAAN
214.8751°
Arg. of periapsis
261.3809°
True anomaly
230.504°
Mean anomaly
232.109°
Eccentric anomaly
231.30428°
Mean motion
2.82663 °/min
BSTAR
0.0018966
Orbital period
127.36 mins
Loading maneuver chart data...
Loading SW <> Apogee altitude chart data...
Loading historical data...
Loading historical data...
Loading historical data...
Loading historical data...
Loading historical data...
Loading historical data...
Loading historical data...

SL-19 DEB Visibility forecast

Observer location: undefined°, undefined°

Span
Click to sort rows by Start time (UTC) header in descending order
Start Az.
Max El. time (UTC)
Max El. Az.
Max El.
End time (UTC)
End Az.
23 mins2025-05-09 07:31:52.984Z211.532° SW2025-05-09 07:42:52.984Z312.655° NW44.92°2025-05-09 07:54:52.984Z31.777° NE
19 mins2025-05-09 09:47:52.984Z272.498° WNW2025-05-09 09:56:52.984Z327.225° NNW27.837°2025-05-09 10:06:52.984Z25.895° NE
15 mins2025-05-09 12:07:52.984Z325.03° NNW2025-05-09 12:14:52.984Z3.849° NNE19.404°2025-05-09 12:22:52.984Z46.746° ENE
19 mins2025-05-09 14:22:52.984Z338.002° N2025-05-09 14:31:52.984Z35.373° NE31.047°2025-05-09 14:41:52.984Z99.271° ESE
22 mins2025-05-09 16:34:52.984Z325.631° NNW2025-05-09 16:45:52.984Z224.012° SW44.389°2025-05-09 16:56:52.984Z158.836° S
12 mins2025-05-09 18:49:52.984Z294.29° NW2025-05-09 18:55:52.984Z261.122° W17.095°2025-05-09 19:01:52.984Z228.344° WSW
11 mins2025-05-10 04:47:52.984Z125.035° SE2025-05-10 04:52:52.984Z98.058° ESE16.042°2025-05-10 04:58:52.984Z66.085° ENE
|